Regional Weather Roundup
Issued by NWS

Home | Current Version | Previous Version | Text Only | Print | Product List | Glossary Off
Versions: 1 2 3 4 5 6 7 8 9 10 11 12 13 14 15 16 17 18 19 20 21 22 23 24 25 26 27 28 29 30 31 32 33 34 35 36 37 38 39 40 41 42 43 44 45 46 47 48 49 50

903
ASUS43 KLMK 200110
RWRKY
KENTUCKY REGIONAL WEATHER ROUNDUP
NATIONAL WEATHER SERVICE LOUISVILLE KY
900 PM EDT THU APR 19 2018

NOTE "FAIR" INDICATES FEW OR NO CLOUDS BELOW 12,000 FEET
WITH NO SIGNIFICANT WEATHER AND/OR OBSTRUCTIONS TO VISIBILITY.

KYZ001>023-026-027-061>063-070>075-200200-
WESTERN AND SOUTH CENTRAL KENTUCKY

CITY           SKY/WX    TMP DP  RH WIND       PRES   REMARKS
PADUCAH        FAIR      48  32  53 NE8       30.38R
HENDERSON      FAIR      50  31  48 N5        30.38R
OWENSBORO      FAIR      51  30  44 N3        30.37R
HOPKINSVILLE   FAIR      44  35  69 N5        30.36R
BOWLING GREEN  FAIR      49  33  54 NW3       30.35R
GLASGOW        FAIR      44  32  62 CALM      30.34R
$$

KYZ024-025-028>034-038-045-046-053-200200-
NORTH CENTRAL KENTUCKY

CITY           SKY/WX    TMP DP  RH WIND       PRES   REMARKS
LOUISVILLE/SDF FAIR      52  28  39 N3        30.33R
LOUISVILLE/LOU FAIR      50  29  44 CALM      30.33R
FORT KNOX      FAIR      45  30  56 CALM      30.34R
$$

KYZ035>037-039>044-047>052-055>060-089>105-200200-
NORTHEAST KENTUCKY

CITY           SKY/WX    TMP DP  RH WIND       PRES   REMARKS
LEXINGTON      FAIR      46  30  53 SW3       30.31R
COVINGTON      FAIR      48  27  44 W7        30.28R
FRANKFORT      FAIR      45  29  53 W3        30.30R
$$

KYZ054-064>069-076>088-106>120-200200-
SOUTHEAST KENTUCKY

CITY           SKY/WX    TMP DP  RH WIND       PRES   REMARKS
JACKSON        FAIR      43  28  55 NW5       30.29R
LONDON         FAIR      43  30  60 NW3       30.31R
SOMERSET       FAIR      43  30  61 CALM      30.34S
MIDDLESBORO    CLOUDY    43  30  59 CALM      30.32R
MONTICELLO     FAIR      38  32  79 N13       30.35R WCI  30
$$





USA.gov is the U.S. government's official web portal to all federal, state and local government web resources and services.